Location: Sungai Igah
(2.7333°N, 114.2500°E)
Time: 10:18:39
(UTC+00:00)

Cosmos 2227 Rocket - Pass Details

Date: 14 June 2021
Orbit: 838 x 846 km, 71.0° (Epoch: 04 August)

Event Time Altitude Azimuth Distance (km) Brightness Sun altitude
Rises 13:06:02 0° 338° (NNW) 3,385 6.0 -35.4°
Reaches altitude 10° 13:08:30 10° 334° (NNW) 2,453 5.2 -35.9°
Enters shadow 13:11:39 34° 321° (NW) 1,363 3.6 -36.6°
